1520071200.59,33073,10.31,71096.8,-7.55,-34.53,-36.97,0,*59
1520071201.83,33074,10.31,71098.3,-7.53,-34.65,-37.45,0,*53
1520071203.07,33075,10.31,71102.3,-7.53,-35.01,-37.81,0,*59
1520071204.33,33076,10.31,71102.3,-7.51,-35.13,-38.11,0,*5D
1520071205.57,33077,10.31,71102.0,-7.53,-33.61,-36.31,0,*51
1520071206.81,33078,10.31,71100.0,-7.51,-32.01,-34.41,0,*5E
1520071208.07,33079,10.31,71092.5,-7.49,-31.57,-34.19,0,*5B
1520071209.36,33080,10.31,71096.0,-7.47,-31.11,-33.61,0,*59
1520071210.62,33081,10.31,71094.8,-7.43,-30.95,-33.37,0,*52
1520071211.85,33082,10.31,71098.3,-7.37,-31.05,-33.73,0,*5A
1520071213.09,33083,10.31,71106.0,-7.35,-31.17,-33.67,0,*5F
1520071214.33,33084,10.31,71098.8,-7.33,-32.19,-35.13,0,*56
1520071215.56,33085,10.31,71112.5,-7.33,-32.57,-35.23,0,*5E
1520071216.8,33086,10.31,71114.8,-7.29,-32.01,-34.53,0,*53
1520071218.05,33087,10.31,71094.3,-7.27,-32.97,-36.07,0,*50
1520071219.31,33088,10.31,71092.5,-7.27,-32.79,-35.59,0,*57
1520071220.55,33089,10.31,71112.5,-7.25,-32.57,-35.35,0,*52
1520071221.79,33090,10.31,71114.8,-7.25,-31.73,-34.13,0,*5A
1520071223.05,33091,10.31,71104.3,-7.25,-31.23,-34.01,0,*5D
1520071224.31,33092,10.31,71102.3,-7.21,-31.85,-34.41,0,*52
1520071225.56,33093,10.31,71104.0,-7.17,-31.39,-33.95,0,*5F
1520071226.82,33094,10.31,71112.3,-7.15,-31.11,-33.77,0,*5C
1520071228.05,33095,10.31,71124.3,-7.11,-31.73,-34.41,0,*5F
1520071229.28,33096,10.31,71114.8,-7.11,-31.91,-34.59,0,*59
1520071230.51,33097,10.31,71108.8,-7.09,-32.01,-34.77,0,*57
1520071231.77,33098,10.31,71122.3,-7.09,-32.23,-34.95,0,*54
1520071232.97,33099,10.31,71124.8,-7.07,-32.23,-35.17,0,*50
1520071234.21,33100,10.31,71126.5,-7.09,-34.59,-37.57,0,*52
1520071235.48,33101,10.31,71122.5,-7.07,-34.35,-37.21,0,*56
1520071236.71,33102,10.31,71122.0,-7.07,-32.75,-35.47,0,*55
1520071237.95,33103,10.31,71124.0,-7.07,-32.07,-34.89,0,*52
1520071239.23,33104,10.31,71126.0,-7.05,-31.85,-34.53,0,*59
1520071240.49,33105,10.31,71130.5,-7.03,-31.95,-34.83,0,*52
1520071241.69,33106,10.31,71132.3,-7.03,-31.05,-33.83,0,*5F
1520071242.93,33107,10.31,71116.0,-6.99,-32.97,-36.01,0,*5B
1520071244.17,33108,10.31,71108.3,-6.99,-33.77,-36.73,0,*5E
1520071245.43,33109,10.31,71116.5,-7.01,-33.77,-36.73,0,*5F
1520071246.64,33110,10.31,71124.8,-6.99,-34.07,-37.03,0,*51
1520071247.9,33111,10.31,71122.8,-7.01,-33.31,-36.19,0,*58
1520071249.16,33112,10.31,71120.0,-7.01,-33.03,-35.95,0,*5D
1520071250.4,33113,10.31,71124.5,-6.99,-32.97,-35.77,0,*5C
1520071251.66,33114,10.31,71124.5,-6.95,-32.63,-35.83,0,*57
1520071252.9,33115,10.31,71126.3,-6.99,-32.97,-35.89,0,*5B
1520071254.13,33116,10.31,71126.0,-6.93,-33.15,-36.07,0,*5C
1520071255.39,33117,10.31,71122.5,-6.93,-33.73,-36.85,0,*57
1520071256.66,33118,10.31,71124.8,-6.95,-33.43,-36.25,0,*57
1520071257.92,33119,10.31,71124.0,-6.95,-32.97,-35.95,0,*56
1520071259.21,33120,10.31,71120.8,-6.93,-33.31,-36.25,0,*5F
1520071260.49,33121,10.31,71118.3,-6.93,-33.31,-36.13,0,*5B
1520071261.78,33122,10.31,71118.5,-6.93,-32.63,-35.53,0,*59
1520071263.05,33123,10.31,71126.8,-6.91,-32.85,-35.77,0,*54
1520071264.32,33124,10.31,71124.8,-6.87,-32.97,-36.01,0,*55
1520071265.56,33125,10.31,71122.8,-6.87,-33.15,-36.01,0,*5F
1520071266.8,33126,10.31,71118.0,-6.87,-33.15,-36.01,0,*5C
1520071268.04,33127,10.31,71128.8,-6.91,-33.37,-36.19,0,*53
1520071269.31,33128,10.31,71124.3,-6.87,-33.37,-36.37,0,*57
1520071270.54,33129,10.31,71128.3,-6.87,-33.95,-36.85,0,*57
1520071271.8,33130,10.31,71122.5,-6.87,-32.85,-35.71,0,*57
1520071273.06,33131,10.31,71120.8,-6.81,-33.27,-36.13,0,*5E
1520071274.3,33132,10.31,71128.0,-6.85,-33.15,-35.95,0,*55
1520071275.51,33133,10.31,71124.5,-6.85,-33.15,-36.01,0,*5A
1520071276.72,33134,10.31,71130.8,-6.81,-32.39,-35.17,0,*52
1520071277.98,33135,10.31,71134.0,-6.81,-33.31,-36.13,0,*5D
1520071279.2,33136,10.31,71124.3,-6.81,-34.07,-37.03,0,*5C
1520071280.44,33137,10.31,71126.5,-6.81,-34.07,-36.79,0,*51
1520071281.67,33138,10.31,71126.0,-6.81,-34.41,-37.21,0,*50
1520071282.91,33139,10.31,71124.8,-6.81,-33.27,-36.07,0,*53
1520071284.14,33140,10.31,71122.3,-6.81,-32.51,-35.23,0,*58
1520071285.39,33141,10.31,71132.5,-6.79,-32.69,-35.29,0,*5F
1520071286.66,33142,10.31,71134.5,-6.79,-33.03,-35.83,0,*51
1520071287.9,33143,10.31,71134.3,-6.79,-33.21,-35.89,0,*5A
1520071289.14,33144,10.31,71130.5,-6.81,-34.31,-36.97,0,*50
1520071290.41,33145,10.31,71126.3,-6.79,-33.27,-35.89,0,*5A
1520071291.67,33146,10.31,71126.8,-6.75,-32.97,-35.59,0,*52
1520071292.94,33147,10.31,71122.5,-6.75,-32.69,-35.35,0,*58
1520071294.17,33148,10.31,71124.8,-6.75,-32.35,-34.89,0,*58
1520071295.41,33149,10.31,71118.5,-6.73,-32.07,-34.59,0,*53
1520071296.64,33150,10.31,71116.5,-6.69,-32.23,-34.83,0,*51
1520071297.88,33151,10.31,71108.5,-6.69,-33.89,-36.67,0,*59
1520071299.08,33152,10.31,71104.8,-6.69,-33.55,-36.07,0,*5D
1520071300.32,33153,10.31,71102.5,-6.67,-32.35,-34.77,0,*50
1520071301.55,33154,10.31,71112.3,-6.65,-32.19,-34.71,0,*5D
1520071302.84,33155,10.31,71116.0,-6.63,-31.57,-33.89,0,*53
1520071304.1,33156,10.31,71122.3,-6.61,-32.85,-35.41,0,*5C
1520071305.33,33157,10.25,71112.3,-6.61,-31.95,-34.07,0,*5C
1520071306.62,33158,10.31,71124.0,-6.57,-31.85,-34.01,0,*51
1520071307.88,33159,10.31,71128.3,-6.57,-31.95,-34.41,0,*55
1520071309.13,33160,10.31,71132.3,-6.55,-34.19,-36.67,0,*5A
1520071310.38,33161,10.31,71132.8,-6.55,-33.27,-35.65,0,*50
1520071311.62,33162,10.31,71122.5,-6.55,-35.47,-37.99,0,*52
1520071312.86,33163,10.31,71108.0,-6.55,-36.07,-38.67,0,*5A
1520071314.11,33164,10.31,71094.8,-6.59,-35.29,-37.63,0,*55
1520071315.34,33165,10.31,71100.3,-6.59,-33.83,-36.13,0,*54
1520071316.61,33166,10.31,71104.8,-6.59,-34.19,-36.61,0,*56
1520071317.85,33167,10.31,71116.8,-6.59,-34.77,-37.09,0,*50
1520071319.07,33168,10.31,71126.3,-6.59,-34.47,-36.73,0,*50
1520071320.29,33169,10.31,71128.8,-6.59,-33.55,-35.77,0,*52
1520071321.56,33170,10.31,71122.3,-6.57,-33.37,-35.53,0,*56
1520071322.8,33171,10.31,71128.5,-6.57,-33.55,-35.71,0,*53
1520071324.06,33172,10.31,71124.3,-6.57,-34.01,-36.07,0,*54
1520071325.33,33173,10.31,71124.8,-6.57,-34.31,-36.31,0,*53
1520071326.57,33174,10.31,71130.3,-6.57,-34.25,-36.43,0,*54
1520071327.83,33175,10.31,71128.0,-6.57,-35.13,-37.09,0,*5E
1520071329.08,33176,10.31,71120.8,-6.59,-37.87,-40.29,0,*5E
1520071330.32,33177,10.31,71122.8,-6.59,-36.91,-39.09,0,*55
1520071331.6,33178,10.31,71120.3,-6.63,-36.37,-38.49,0,*5A
1520071332.83,33179,10.31,71114.5,-6.63,-37.27,-39.47,0,*54
1520071334.07,33180,10.31,71118.5,-6.67,-35.89,-37.87,0,*52
1520071335.36,33181,10.31,71120.8,-6.67,-35.23,-37.21,0,*5F
1520071336.65,33182,10.31,71130.5,-6.67,-34.53,-36.79,0,*56
1520071337.94,33183,10.31,71134.0,-6.67,-36.61,-38.91,0,*5C
1520071339.2,33184,10.31,71138.0,-6.67,-36.97,-39.03,0,*58
1520071340.44,33185,10.31,71138.3,-6.73,-37.09,-39.09,0,*50
1520071341.7,33186,10.31,71136.8,-6.75,-37.15,-39.15,0,*55
1520071342.91,33187,10.31,71126.3,-6.77,-36.97,-38.97,0,*56
1520071344.15,33188,10.31,71122.5,-6.79,-37.75,-39.91,0,*5D
1520071345.38,33189,10.31,71122.0,-6.81,-37.33,-39.23,0,*50
1520071346.61,33190,10.31,71136.3,-6.81,-37.93,-39.85,0,*5E
1520071347.87,33191,10.25,71134.5,-6.85,-38.67,-40.59,0,*50
1520071349.13,33192,10.31,71126.0,-6.85,-38.49,-40.59,0,*5F
1520071350.4,33193,10.31,71120.8,-6.91,-38.73,-40.59,0,*52
1520071351.66,33194,10.25,71108.3,-6.93,-38.17,-40.09,0,*50
1520071352.89,33195,10.31,71104.5,-6.95,-37.45,-39.29,0,*53
1520071354.15,33196,10.31,71114.3,-6.99,-37.51,-39.15,0,*56
1520071355.38,33197,10.31,71120.3,-6.99,-36.85,-38.67,0,*5B
1520071356.64,33198,10.31,71122.0,-7.01,-38.17,-40.21,0,*5C
1520071357.9,33199,10.25,71112.8,-7.05,-38.73,-40.59,0,*54
1520071359.16,33200,10.25,71106.3,-7.03,-37.09,-38.67,0,*51
1520071360.42,33201,10.31,71108.3,-7.05,-36.25,-37.87,0,*58
1520071361.69,33202,10.25,71110.5,-7.05,-35.07,-36.55,0,*56
1520071362.97,33203,10.25,71102.0,-7.01,-33.89,-35.35,0,*56
1520071364.23,33204,10.31,71108.8,-7.01,-33.49,-34.77,0,*5A
1520071365.49,33205,10.25,71100.0,-6.99,-33.49,-34.65,0,*58
1520071366.77,33206,10.31,71106.3,-6.93,-34.53,-35.89,0,*5E
1520071368.04,33207,10.31,71108.0,-6.91,-34.19,-35.29,0,*59
1520071369.31,33208,10.25,71108.0,-6.91,-34.35,-35.77,0,*53
1520071370.57,33209,10.31,71106.8,-6.87,-34.47,-35.77,0,*50
1520071371.86,33210,10.31,71102.3,-6.87,-34.65,-36.13,0,*59
1520071373.13,33211,10.25,71104.3,-6.87,-34.59,-36.13,0,*57
1520071374.34,33212,10.25,71106.3,-6.85,-34.47,-35.71,0,*5E
1520071375.56,33213,10.25,71112.3,-6.81,-34.25,-35.29,0,*52
1520071376.8,33214,10.25,71108.5,-6.81,-34.31,-35.47,0,*58
1520071378.04,33215,10.31,71110.0,-6.79,-34.71,-36.07,0,*5D
1520071379.28,33216,10.25,71098.3,-6.79,-36.01,-37.33,0,*5D
1520071380.52,33217,10.25,71096.3,-6.81,-36.73,-37.93,0,*54
1520071381.73,33218,10.25,71102.8,-6.81,-36.73,-38.05,0,*5B
1520071382.96,33219,10.25,71096.5,-6.81,-37.87,-39.23,0,*55
1520071384.17,33220,10.31,71112.5,-6.81,-37.45,-38.61,0,*56
1520071385.42,33221,10.25,71112.0,-6.81,-35.65,-36.79,0,*50
1520071386.63,33222,10.25,71108.0,-6.85,-37.33,-38.61,0,*51
1520071387.86,33223,10.31,71104.0,-6.85,-38.17,-39.53,0,*59
1520071389.15,33224,10.25,71118.0,-6.91,-39.03,-40.09,0,*5E
1520071390.38,33225,10.31,71120.0,-6.93,-38.55,-39.91,0,*50
1520071391.61,33226,10.31,71126.8,-6.99,-38.43,-39.53,0,*50
1520071392.85,33227,10.31,71126.0,-6.99,-37.81,-38.85,0,*5A
1520071394.12,33228,10.25,71128.3,-7.01,-38.23,-39.53,0,*58
1520071395.38,33229,10.31,71130.0,-7.01,-37.99,-38.97,0,*5E
1520071396.64,33230,10.31,71128.5,-7.01,-38.61,-39.71,0,*57
1520071397.87,33231,10.31,71130.8,-7.03,-38.23,-39.09,0,*5D
1520071399.1,33232,10.31,71128.3,-7.05,-37.75,-38.85,0,*51
1520071400.35,33233,10.25,71130.5,-7.09,-39.85,-41.03,0,*5D
1520071401.62,33234,10.25,71112.8,-7.09,-40.85,-41.93,0,*5D
1520071402.87,33235,10.25,71114.8,-7.13,-40.97,-41.99,0,*5E
1520071404.13,33236,10.25,71112.3,-7.17,-41.23,-42.37,0,*50
1520071405.37,33237,10.31,71104.0,-7.23,-41.23,-42.25,0,*55
1520071406.6,33238,10.31,71088.5,-7.23,-38.35,-39.15,0,*5C
1520071407.81,33239,10.31,71114.8,-7.25,-35.71,-36.67,0,*5C
1520071409.03,33240,10.31,71132.3,-7.25,-35.77,-36.55,0,*55
1520071410.23,33241,10.25,71124.8,-7.23,-36.19,-36.85,0,*54
1520071411.49,33242,10.25,71120.3,-7.21,-37.39,-38.35,0,*53
1520071412.73,33243,10.25,71124.5,-7.23,-37.39,-38.35,0,*50
1520071413.99,33244,10.31,71124.5,-7.23,-37.39,-37.99,0,*5E
1520071415.22,33245,10.25,71124.0,-7.23,-37.33,-38.11,0,*5A
1520071416.51,33246,10.25,71128.5,-7.21,-37.21,-37.93,0,*5D
1520071417.77,33247,10.25,71130.0,-7.21,-37.33,-37.99,0,*55
1520071419.0,33248,10.25,71128.5,-7.23,-37.51,-38.17,0,*55
1520071420.26,33249,10.25,71130.8,-7.23,-37.21,-37.93,0,*50
1520071421.51,33250,10.31,71132.3,-7.23,-36.97,-37.63,0,*5B
1520071422.76,33251,10.25,71134.3,-7.23,-38.67,-39.15,0,*54
1520071424.02,33252,10.25,71126.5,-7.27,-39.41,-39.91,0,*5A
1520071425.27,33253,10.25,71126.0,-7.27,-40.15,-40.91,0,*5A
1520071426.51,33254,10.25,71120.5,-7.29,-40.15,-40.59,0,*57
1520071427.76,33255,10.25,71118.8,-7.31,-38.97,-39.53,0,*5E
1520071429.0,33256,10.25,71114.3,-7.33,-36.49,-36.97,0,*55
1520071430.23,33257,10.25,71118.3,-7.33,-35.83,-36.19,0,*57
1520071431.47,33258,10.25,71124.0,-7.31,-35.47,-36.01,0,*5B
1520071432.7,33259,10.25,71120.0,-7.29,-35.65,-36.01,0,*53
1520071433.96,33260,10.25,71118.0,-7.27,-36.07,-36.37,0,*55
1520071435.2,33261,10.25,71114.0,-7.25,-35.71,-35.95,0,*5F
1520071436.43,33262,10.25,71110.3,-7.25,-36.37,-36.73,0,*56
1520071437.71,33263,10.25,71100.5,-7.25,-37.81,-38.23,0,*50
1520071438.96,33264,10.25,71108.8,-7.27,-38.61,-39.03,0,*57
1520071440.22,33265,10.25,71110.3,-7.27,-38.85,-39.23,0,*5E
1520071441.48,33266,10.25,71108.8,-7.27,-38.55,-39.03,0,*52
1520071442.76,33267,10.25,71106.0,-7.31,-38.11,-38.29,0,*5D
1520071444.05,33268,10.25,71110.8,-7.31,-39.15,-39.53,0,*5B
1520071445.27,33269,10.31,71112.5,-7.31,-38.97,-39.35,0,*51
1520071446.56,33270,10.25,71112.5,-7.35,-39.41,-39.79,0,*5F
1520071447.83,33271,10.25,71118.3,-7.37,-39.79,-39.97,0,*57
1520071449.08,33272,10.25,71112.0,-7.39,-40.53,-40.79,0,*52
1520071450.36,33273,10.25,71116.8,-7.39,-38.91,-39.23,0,*53
1520071451.61,33274,10.25,71122.8,-7.45,-39.29,-39.53,0,*5A
1520071452.83,33275,10.25,71130.0,-7.45,-38.85,-38.85,0,*56
1520071454.07,33276,10.25,71124.8,-7.47,-39.85,-39.85,0,*57
1520071455.3,33277,10.25,71110.8,-7.49,-39.35,-39.53,0,*58
1520071456.57,33278,10.25,71114.0,-7.49,-39.15,-39.41,0,*56
1520071457.84,33279,10.25,71114.8,-7.49,-37.21,-37.39,0,*5F
1520071459.08,33280,10.25,71104.5,-7.49,-37.99,-38.05,0,*5A
1520071460.32,33281,10.25,71114.8,-7.49,-37.75,-37.81,0,*5A
1520071461.53,33282,10.25,71110.0,-7.49,-38.35,-38.55,0,*54
1520071462.77,33283,10.25,71102.3,-7.53,-39.65,-39.79,0,*55
1520071463.98,33284,10.25,71090.3,-7.53,-38.85,-38.97,0,*5C
1520071465.2,33285,10.25,71074.0,-7.53,-36.67,-36.67,0,*5E
1520071466.45,33286,10.25,71074.5,-7.51,-34.59,-34.59,0,*5F
1520071467.67,33287,10.25,71076.3,-7.49,-35.29,-35.13,0,*5E
1520071468.94,33288,10.25,71080.5,-7.47,-34.95,-34.77,0,*5A
1520071470.22,33289,10.25,71096.5,-7.43,-35.35,-35.35,0,*53
1520071471.48,33290,10.25,71110.3,-7.43,-35.17,-35.07,0,*5A
1520071472.74,33291,10.25,71120.3,-7.39,-35.17,-34.95,0,*5C
1520071473.97,33292,10.25,71122.5,-7.37,-35.01,-34.83,0,*51
1520071475.19,33293,10.25,71118.3,-7.33,-36.97,-37.15,0,*54
1520071476.43,33294,10.25,71124.5,-7.35,-35.71,-35.59,0,*54
1520071477.63,33295,10.25,71124.8,-7.33,-34.25,-34.13,0,*5C
1520071478.87,33296,10.25,71120.8,-7.33,-34.53,-34.41,0,*59
1520071480.1,33297,10.25,71120.0,-7.29,-35.01,-34.83,0,*5B
1520071481.32,33298,10.25,71122.3,-7.29,-35.23,-35.17,0,*58
1520071482.56,33299,10.25,71126.5,-7.27,-34.77,-34.59,0,*5C
1520071483.81,33300,10.25,71122.0,-7.25,-34.65,-34.47,0,*53
1520071485.08,33301,10.25,71128.0,-7.21,-34.35,-34.19,0,*58
1520071486.34,33302,10.25,71122.0,-7.21,-35.17,-35.07,0,*54
1520071487.57,33303,10.25,71128.3,-7.15,-33.95,-33.77,0,*5F
1520071488.82,33304,10.25,71124.8,-7.15,-34.35,-34.19,0,*5A
1520071490.07,33305,10.25,71120.3,-7.13,-34.65,-34.41,0,*55
1520071491.33,33306,10.25,71124.5,-7.11,-33.73,-33.49,0,*5B
1520071492.55,33307,10.25,71122.3,-7.11,-34.77,-34.47,0,*50
1520071493.8,33308,10.25,71126.8,-7.09,-33.67,-33.49,0,*59
1520071495.06,33309,10.25,71132.8,-7.07,-33.27,-32.97,0,*50
1520071496.27,33310,10.25,71128.5,-7.03,-32.91,-32.69,0,*51
1520071497.52,33311,10.25,71130.0,-6.99,-32.97,-32.63,0,*5E
1520071498.76,33312,10.25,71112.5,-6.99,-33.49,-33.21,0,*58
1520071500.01,33313,10.25,71114.0,-6.93,-32.91,-32.63,0,*50
1520071501.27,33314,10.25,71124.0,-6.87,-32.23,-31.91,0,*55
1520071502.51,33315,10.25,71122.8,-6.85,-31.95,-31.79,0,*5E
1520071503.72,33316,10.25,71130.5,-6.81,-32.39,-32.23,0,*50
1520071504.98,33317,10.25,71132.0,-6.79,-32.01,-31.85,0,*52
1520071506.23,33318,10.25,71132.0,-6.75,-32.69,-32.51,0,*55
1520071507.47,33319,10.25,71130.5,-6.73,-32.85,-33.15,0,*51
1520071508.73,33320,10.25,71130.3,-6.69,-34.35,-34.19,0,*56
1520071510.0,33321,10.25,71128.3,-6.69,-34.95,-34.95,0,*59
1520071511.21,33322,10.25,71134.3,-6.69,-35.17,-35.01,0,*5D
1520071512.48,33323,10.25,71134.0,-6.73,-34.95,-34.95,0,*50
1520071513.72,33324,10.25,71122.3,-6.73,-35.47,-35.53,0,*52
1520071514.95,33325,10.25,71100.0,-6.69,-36.13,-36.07,0,*58
1520071516.18,33326,10.25,71096.8,-6.73,-35.53,-35.47,0,*50
1520071517.4,33327,10.25,71104.5,-6.69,-35.77,-35.89,0,*5E
1520071518.67,33328,10.25,71100.5,-6.73,-36.61,-36.61,0,*5B
1520071519.91,33329,10.25,71108.3,-6.73,-38.05,-38.23,0,*5E
1520071521.16,33330,10.25,71112.0,-6.77,-37.81,-37.87,0,*50
1520071522.43,33331,10.25,71112.8,-6.77,-37.81,-37.81,0,*57
1520071523.66,33332,10.25,71120.3,-6.81,-36.97,-36.79,0,*5D
1520071524.92,33333,10.25,71112.0,-6.81,-36.91,-36.79,0,*5A
1520071526.13,33334,10.25,71116.0,-6.81,-36.19,-36.19,0,*5B
1520071527.37,33335,10.25,71116.0,-6.81,-35.07,-34.77,0,*5C
1520071528.64,33336,10.25,71124.3,-6.81,-33.49,-33.43,0,*53
1520071529.87,33337,10.25,71124.8,-6.79,-33.95,-33.83,0,*58
1520071531.16,33338,10.25,71124.8,-6.79,-34.31,-34.31,0,*50
1520071532.44,33339,10.25,71126.0,-6.75,-34.83,-34.83,0,*5D
1520071533.67,33340,10.25,71128.5,-6.75,-34.41,-34.41,0,*53
1520071534.92,33341,10.25,71128.8,-6.75,-35.01,-35.01,0,*52
1520071536.2,33342,10.25,71130.3,-6.75,-34.31,-34.31,0,*51
1520071537.44,33343,10.25,71130.5,-6.73,-34.01,-33.83,0,*5B
1520071538.71,33344,10.25,71130.0,-6.69,-34.65,-34.83,0,*52
1520071539.94,33345,10.25,71130.3,-6.73,-35.53,-35.59,0,*5A
1520071541.15,33346,10.25,71132.3,-6.73,-36.07,-36.07,0,*53
1520071542.38,33347,10.25,71134.0,-6.69,-36.13,-36.31,0,*59
1520071543.62,33348,10.25,71138.8,-6.73,-37.21,-37.27,0,*5B
1520071544.89,33349,10.25,71132.5,-6.77,-37.63,-37.81,0,*54
1520071546.1,33350,10.25,71132.8,-6.77,-36.97,-37.15,0,*5B
1520071547.34,33351,10.25,71130.3,-6.79,-36.07,-36.19,0,*50
1520071548.58,33352,10.25,71130.5,-6.77,-35.59,-35.83,0,*55
1520071549.81,33353,10.25,71134.3,-6.77,-35.17,-35.53,0,*53
1520071551.08,33354,10.25,71134.5,-6.79,-34.71,-34.95,0,*50
1520071552.35,33355,10.25,71130.0,-6.79,-34.95,-35.13,0,*54
1520071553.62,33356,10.25,71138.5,-6.75,-34.31,-34.47,0,*55
1520071554.91,33357,10.25,71130.3,-6.75,-34.83,-35.07,0,*58
1520071556.18,33358,10.25,71120.8,-6.75,-34.47,-34.83,0,*52
1520071557.42,33359,10.25,71138.5,-6.73,-33.09,-33.15,0,*50
1520071558.65,33360,10.25,71136.0,-6.69,-33.15,-33.49,0,*55
1520071559.86,33361,10.25,71142.5,-6.65,-33.83,-34.13,0,*5F
1520071561.09,33362,10.25,71140.3,-6.65,-34.89,-35.41,0,*57
1520071562.36,33363,10.25,71138.5,-6.65,-36.25,-36.61,0,*53
1520071563.59,33364,10.25,71140.3,-6.67,-36.43,-36.97,0,*5F
1520071564.83,33365,10.25,71136.3,-6.69,-37.93,-38.35,0,*5A
1520071566.09,33366,10.25,71136.8,-6.73,-38.79,-39.41,0,*5B
1520071567.36,33367,10.25,71136.0,-6.77,-39.03,-39.79,0,*59
1520071568.62,33368,10.25,71138.3,-6.79,-39.23,-39.85,0,*59
1520071569.82,33369,10.25,71134.3,-6.81,-38.55,-38.97,0,*5D
1520071571.09,33370,10.25,71124.3,-6.81,-37.63,-38.23,0,*50
1520071572.32,33371,10.25,71124.8,-6.85,-36.67,-37.09,0,*57
1520071573.54,33372,10.25,71116.5,-6.85,-35.01,-35.59,0,*50
1520071574.75,33373,10.25,71124.3,-6.85,-35.71,-36.31,0,*5B
1520071575.96,33374,10.25,71118.0,-6.81,-35.17,-35.89,0,*58
1520071577.22,33375,10.25,71106.8,-6.85,-35.83,-36.49,0,*5F
1520071578.46,33376,10.25,71118.0,-6.85,-36.73,-37.51,0,*58
1520071579.67,33377,10.25,71112.0,-6.85,-36.67,-37.33,0,*58
1520071580.87,33378,10.25,71112.5,-6.85,-36.73,-37.45,0,*53
1520071582.08,33379,10.25,71114.3,-6.85,-36.67,-37.27,0,*53
1520071583.35,33380,10.25,71118.5,-6.91,-36.25,-37.03,0,*50
1520071584.61,33381,10.25,71116.5,-6.91,-37.57,-38.29,0,*52
1520071585.86,33382,10.25,71118.8,-6.91,-36.97,-37.75,0,*5A
1520071587.12,33383,10.25,71112.0,-6.93,-36.97,-37.63,0,*5E
1520071588.42,33384,10.25,71118.3,-6.91,-37.51,-38.29,0,*51
1520071589.64,33385,10.25,71114.3,-6.95,-38.73,-39.53,0,*57
1520071590.9,33386,10.25,71112.0,-7.01,-37.63,-38.43,0,*56
1520071592.14,33387,10.25,71104.3,-6.99,-35.95,-36.67,0,*54
1520071593.37,33388,10.25,71100.3,-6.99,-36.37,-37.33,0,*50
1520071594.61,33389,10.25,71098.0,-6.99,-36.73,-37.63,0,*54
1520071595.87,33390,10.25,71100.3,-6.99,-36.49,-37.51,0,*54
1520071597.09,33391,10.25,71102.0,-6.99,-37.87,-38.85,0,*50
1520071598.3,33392,10.25,71106.5,-7.03,-40.03,-41.03,0,*5D
1520071599.55,33393,10.25,71108.0,-7.07,-39.91,-40.97,0,*51
1520071600.79,33394,10.25,71110.3,-7.07,-37.15,-37.99,0,*5A
1520071602.04,33395,10.25,71114.5,-7.09,-37.63,-38.61,0,*5C
1520071603.31,33396,10.25,71112.3,-7.09,-36.97,-37.99,0,*5D
1520071604.56,33397,10.25,71112.5,-7.09,-36.61,-37.45,0,*54
1520071605.84,33398,10.25,71112.5,-7.09,-35.83,-36.79,0,*5A
1520071607.07,33399,10.25,71110.5,-7.09,-35.47,-36.31,0,*5F
1520071608.31,33400,10.19,71112.3,-7.07,-34.71,-35.65,0,*50
1520071609.54,33401,10.25,71116.3,-7.07,-33.49,-34.25,0,*58
1520071610.8,33402,10.25,71116.3,-7.03,-32.75,-33.61,0,*56
1520071612.05,33403,10.25,71118.8,-6.99,-32.63,-33.49,0,*58
1520071613.31,33404,10.25,71126.0,-6.93,-32.63,-33.67,0,*59
1520071614.58,33405,10.25,71130.8,-6.91,-31.67,-32.75,0,*5F
1520071615.82,33406,10.25,71132.8,-6.85,-32.07,-33.21,0,*5C
1520071617.08,33407,10.25,71134.5,-6.85,-32.85,-33.89,0,*55
1520071618.35,33408,10.25,71128.5,-6.79,-33.43,-34.35,0,*52
1520071619.59,33409,10.25,71126.5,-6.79,-32.35,-33.37,0,*56
1520071620.86,33410,10.25,71130.3,-6.75,-31.57,-32.51,0,*54
1520071622.12,33411,10.25,71128.8,-6.69,-31.73,-32.63,0,*5F
1520071623.34,33412,10.25,71134.8,-6.65,-31.79,-32.69,0,*50
1520071624.6,33413,10.25,71138.0,-6.65,-32.07,-33.09,0,*5C
1520071625.84,33414,10.25,71136.3,-6.61,-32.51,-33.43,0,*52
1520071627.08,33415,10.25,71134.5,-6.59,-32.63,-33.55,0,*5E
1520071628.31,33416,10.25,71136.3,-6.55,-32.85,-33.83,0,*52
1520071629.57,33417,10.25,71138.0,-6.53,-32.07,-33.03,0,*57
1520071630.83,33418,10.25,71138.0,-6.47,-32.79,-33.73,0,*53
1520071632.07,33419,10.25,71132.3,-6.47,-34.19,-35.13,0,*52
1520071633.3,33420,10.25,71132.3,-6.47,-33.31,-34.41,0,*53
1520071634.55,33421,10.25,71136.0,-6.45,-32.91,-34.01,0,*5F
1520071635.81,33422,10.25,71136.8,-6.41,-32.91,-34.01,0,*58
1520071637.06,33423,10.25,71136.8,-6.41,-32.97,-33.95,0,*55
1520071638.29,33424,10.25,71132.5,-6.41,-32.39,-33.15,0,*5E
1520071639.55,33425,10.25,71132.0,-6.39,-32.19,-32.97,0,*59
1520071640.8,33426,10.25,71134.8,-6.35,-32.45,-33.49,0,*5D
1520071642.03,33427,10.25,71138.3,-6.33,-33.03,-34.13,0,*51
1520071643.27,33428,10.25,71138.3,-6.33,-33.83,-35.01,0,*54
1520071644.48,33429,10.25,71140.5,-6.31,-35.13,-36.31,0,*58
1520071645.71,33430,10.25,71138.8,-6.31,-35.83,-36.97,0,*55
1520071646.91,33431,10.25,71128.0,-6.31,-37.15,-38.35,0,*5F
1520071648.15,33432,10.25,71128.3,-6.35,-36.73,-37.99,0,*50
1520071649.4,33433,10.25,71134.0,-6.37,-35.59,-36.61,0,*5E
1520071650.64,33434,10.25,71132.5,-6.35,-35.89,-37.09,0,*59
1520071651.87,33435,10.25,71140.3,-6.39,-36.97,-38.11,0,*5E
1520071653.13,33436,10.25,71140.5,-6.39,-36.79,-37.93,0,*58
1520071654.36,33437,10.25,71124.8,-6.41,-37.33,-38.55,0,*5C
1520071655.61,33438,10.19,71108.5,-6.41,-37.63,-38.73,0,*52
1520071656.9,33439,10.25,71122.0,-6.45,-37.81,-39.03,0,*5D
1520071658.16,33440,10.25,71124.5,-6.45,-37.39,-38.43,0,*55
1520071659.4,33441,10.25,71128.5,-6.51,-36.97,-38.23,0,*52
1520071660.64,33442,10.19,71124.3,-6.51,-37.15,-38.29,0,*50
1520071661.87,33443,10.25,71128.8,-6.51,-37.45,-38.79,0,*51
1520071663.15,33444,10.19,71124.5,-6.53,-37.93,-39.29,0,*5B
1520071664.41,33445,10.25,71126.8,-6.57,-38.43,-39.79,0,*59
1520071665.65,33446,10.25,71136.0,-6.59,-38.61,-39.97,0,*54
1520071666.92,33447,10.19,71134.3,-6.59,-38.79,-40.09,0,*55
1520071668.18,33448,10.19,71128.8,-6.63,-38.49,-39.65,0,*54
1520071669.42,33449,10.25,71122.0,-6.63,-37.33,-38.43,0,*52
1520071670.68,33450,10.25,71126.3,-6.63,-37.33,-38.29,0,*56
1520071671.94,33451,10.25,71126.0,-6.67,-38.17,-39.23,0,*51
1520071673.17,33452,10.25,71128.3,-6.67,-38.55,-39.85,0,*58
1520071674.41,33453,10.19,71122.5,-6.69,-38.55,-39.71,0,*5C
1520071675.64,33454,10.25,71126.5,-6.73,-38.05,-39.29,0,*58
1520071676.91,33455,10.19,71128.5,-6.75,-38.49,-39.65,0,*5F
1520071678.14,33456,10.25,71128.0,-6.77,-38.11,-39.47,0,*53
1520071679.37,33457,10.25,71124.0,-6.79,-38.55,-39.85,0,*52
1520071680.58,33458,10.19,71118.3,-6.81,-38.55,-39.85,0,*5A
1520071681.82,33459,10.25,71124.5,-6.81,-39.23,-40.47,0,*5B
1520071683.02,33460,10.19,71120.8,-6.85,-41.41,-42.25,0,*58
1520071684.29,33461,10.25,71126.0,-6.87,-42.05,-43.35,0,*58
1520071685.58,33462,10.19,71122.3,-6.91,-42.31,-43.67,0,*5C
1520071686.85,33463,10.25,71116.0,-7.01,-42.25,-43.55,0,*51
1520071688.1,33464,10.25,71108.3,-7.03,-41.23,-42.45,0,*51
1520071689.31,33465,10.19,71112.5,-7.07,-41.03,-42.25,0,*50
1520071690.57,33466,10.19,71110.3,-7.09,-38.79,-39.35,0,*53
1520071691.82,33467,10.19,71108.3,-7.11,-36.91,-37.69,0,*54
1520071693.07,33468,10.19,71110.3,-7.07,-35.65,-36.61,0,*5D
1520071694.3,33469,10.19,71116.3,-7.07,-35.35,-36.31,0,*5C
1520071695.54,33470,10.25,71126.0,-7.03,-34.89,-35.83,0,*5C
1520071696.75,33471,10.19,71124.5,-7.03,-35.47,-36.43,0,*51
1520071698.0,33472,10.19,71124.5,-7.01,-36.55,-37.69,0,*59